Weather History for Hallock, MN

Change the Weather History Date:

Saturday, November 30, 2013

  Actual Average Record
Temperature  
Mean Temperature 22 °F -  
Max Temperature 24 °F 24 °F 47 °F (1939)
Min Temperature 19 °F 5 °F -29 °F (1985)
Degree Days  
Heating Degree Days 44    
Moisture  
Dew Point 18 °F    
Average Humidity 86    
Maximum Humidity 93    
Minimum Humidity 80    
Precipitation  
Precipitation 0.00 in - - ()
Sea Level Pressure  
Sea Level Pressure 30.12 in    
Wind  
Wind Speed 8 mph (NNW)    
Max Wind Speed 14 mph    
Max Gust Speed 16 mph    
Visibility 9 miles    
Events      
Averages and records for this station are not official NWS values.
T = Trace of Precipitation, MM = Missing Value Source: NWS Daily Summary

Daily Weather History Graph

Daily Weather History Graph

Search for Another Location

Airport:

Trip Planner

Search our weather history database for the weather conditions in past years. The results will help you decide how hot, cold, wet, or windy it might be!

Date:

Astronomy

Nov. 30, 2013 Rise Set
Actual Time 7:58 AM CST 4:34 PM CST
Civil Twilight 7:22 AM CST 5:10 PM CST
Nautical Twilight 6:42 AM CST 5:49 PM CST
Astronomical Twilight 6:04 AM CST 6:27 PM CST
Moon 4:59 AM CST (11/30) 3:08 PM CST (11/30)
Length of Visible Light 9h 48m
Length of Day
8h 35m
Waning Crescent, 7% of the Moon is Illuminated
Nov 30
Waning Crescent
Dec 2
New
Dec 9
First Quarter
Dec 17
Full
Dec 25
Last Quarter

Hourly Weather History & Observations

Time (CST) Temp. Windchill Dew Point Humidity Pressure Visibility Wind Dir Wind Speed Gust Speed Precip Events Conditions
12:13 AM 19.4 °F 10.4 °F 15.8 °F 86% 29.99 in 10.0 mi NW 6.9 mph - N/A   Clear
12:33 AM 19.4 °F 10.4 °F 17.6 °F 93% 29.98 in 10.0 mi NW 6.9 mph - N/A   Clear
12:53 AM 21.2 °F 11.7 °F 17.6 °F 86% 29.98 in 10.0 mi NW 8.1 mph - N/A   Scattered Clouds
1:13 AM 21.2 °F 11.7 °F 19.4 °F 93% 29.99 in 10.0 mi NW 8.1 mph - N/A   Scattered Clouds
1:33 AM 23.0 °F 12.4 °F 19.4 °F 86% 29.99 in 10.0 mi NW 10.4 mph - N/A   Mostly Cloudy
1:53 AM 24.8 °F 14.6 °F 19.4 °F 80% 29.98 in 10.0 mi NW 10.4 mph - N/A   Overcast
2:13 AM 24.8 °F 15.3 °F 19.4 °F 80% 29.98 in 10.0 mi NNW 9.2 mph - N/A   Overcast
2:33 AM 24.8 °F 15.3 °F 19.4 °F 80% 30.00 in 10.0 mi NW 9.2 mph - N/A   Overcast
2:53 AM 23.0 °F 12.4 °F 19.4 °F 86% 30.01 in 10.0 mi NW 10.4 mph - N/A   Overcast
3:13 AM 23.0 °F 13.1 °F 19.4 °F 86% 30.01 in 10.0 mi NW 9.2 mph - N/A   Overcast
3:33 AM 23.0 °F 13.1 °F 19.4 °F 86% 30.01 in 10.0 mi NW 9.2 mph - N/A   Overcast
3:53 AM 23.0 °F 13.9 °F 17.6 °F 80% 30.02 in 10.0 mi NW 8.1 mph - N/A   Overcast
4:13 AM 21.2 °F 12.6 °F 19.4 °F 93% 30.02 in 10.0 mi NW 6.9 mph - N/A   Overcast
4:33 AM 23.0 °F 13.9 °F 17.6 °F 80% 30.03 in 10.0 mi NW 8.1 mph - N/A   Overcast
4:53 AM 23.0 °F 13.9 °F 17.6 °F 80% 30.03 in 10.0 mi NNW 8.1 mph - N/A   Overcast
5:13 AM 23.0 °F 13.9 °F 19.4 °F 86% 30.03 in 10.0 mi NNW 8.1 mph - N/A   Overcast
5:33 AM 23.0 °F 12.4 °F 17.6 °F 80% 30.04 in 10.0 mi NNW 10.4 mph - N/A   Overcast
5:53 AM 23.0 °F 12.4 °F 17.6 °F 80% 30.04 in 10.0 mi NNW 10.4 mph - N/A   Overcast
6:13 AM 23.0 °F 12.4 °F 17.6 °F 80% 30.05 in 10.0 mi North 10.4 mph - N/A   Overcast
6:33 AM 23.0 °F 12.4 °F 17.6 °F 80% 30.06 in 10.0 mi North 10.4 mph - N/A   Overcast
6:53 AM 21.2 °F 8.3 °F 17.6 °F 86% 30.06 in 10.0 mi NNW 13.8 mph - N/A   Overcast
7:13 AM 21.2 °F 9.5 °F 17.6 °F 86% 30.07 in 10.0 mi North 11.5 mph 16.1 mph N/A   Overcast
7:33 AM 21.2 °F 10.1 °F 17.6 °F 86% 30.07 in 10.0 mi North 10.4 mph - N/A   Overcast
7:53 AM 21.2 °F 12.6 °F 17.6 °F 86% 30.08 in 10.0 mi North 6.9 mph 10.4 mph N/A   Overcast
8:13 AM 21.2 °F 11.7 °F 17.6 °F 86% 30.09 in 7.0 mi North 8.1 mph 11.5 mph N/A   Overcast
8:33 AM 21.2 °F 10.9 °F 17.6 °F 86% 30.10 in 7.0 mi North 9.2 mph - N/A   Overcast
8:53 AM 21.2 °F 9.5 °F 17.6 °F 86% 30.11 in 7.0 mi North 11.5 mph - N/A   Overcast
9:13 AM 21.2 °F 10.9 °F 17.6 °F 86% 30.11 in 7.0 mi North 9.2 mph - N/A   Overcast
9:33 AM 21.2 °F 11.7 °F 17.6 °F 86% 30.12 in 7.0 mi NNW 8.1 mph - N/A   Overcast
9:53 AM 21.2 °F 12.6 °F 17.6 °F 86% 30.13 in 7.0 mi NNW 6.9 mph - N/A   Overcast
10:13 AM 21.2 °F 13.6 °F 17.6 °F 86% 30.13 in 7.0 mi North 5.8 mph - N/A   Overcast
10:33 AM 21.2 °F 11.7 °F 17.6 °F 86% 30.14 in 7.0 mi NNW 8.1 mph - N/A   Overcast
10:53 AM 21.2 °F 12.6 °F 17.6 °F 86% 30.14 in 10.0 mi North 6.9 mph - N/A   Overcast
11:13 AM 21.2 °F 10.9 °F 17.6 °F 86% 30.14 in 10.0 mi North 9.2 mph - N/A   Overcast
11:33 AM 21.2 °F 10.9 °F 17.6 °F 86% 30.14 in 7.0 mi NNE 9.2 mph - N/A   Overcast
11:53 AM 21.2 °F 12.6 °F 17.6 °F 86% 30.14 in 7.0 mi North 6.9 mph - N/A   Overcast
12:13 PM 21.2 °F 10.9 °F 17.6 °F 86% 30.13 in 7.0 mi NNE 9.2 mph - N/A   Overcast
12:33 PM 21.2 °F 11.7 °F 17.6 °F 86% 30.15 in 10.0 mi NNW 8.1 mph - N/A   Overcast
12:53 PM 21.2 °F - 17.6 °F 86% 30.15 in 10.0 mi Calm Calm - N/A   Overcast
1:13 PM 21.2 °F 14.9 °F 17.6 °F 86% 30.14 in 7.0 mi North 4.6 mph - N/A   Overcast
1:33 PM 21.2 °F 12.6 °F 17.6 °F 86% 30.15 in 7.0 mi North 6.9 mph - N/A   Overcast
1:53 PM 21.2 °F 10.9 °F 19.4 °F 93% 30.15 in 7.0 mi NW 9.2 mph - N/A   Overcast
2:13 PM 21.2 °F 11.7 °F 17.6 °F 86% 30.15 in 7.0 mi NW 8.1 mph - N/A   Overcast
2:33 PM 21.2 °F 12.6 °F 17.6 °F 86% 30.15 in 7.0 mi NNW 6.9 mph - N/A   Overcast
2:53 PM 21.2 °F 12.6 °F 17.6 °F 86% 30.16 in 7.0 mi North 6.9 mph - N/A   Overcast
3:13 PM 21.2 °F 10.9 °F 19.4 °F 93% 30.16 in 7.0 mi NNW 9.2 mph - N/A   Overcast
3:34 PM 21.2 °F 13.6 °F 19.4 °F 93% 30.16 in 7.0 mi North 5.8 mph - N/A   Overcast
3:53 PM 21.2 °F 11.7 °F 17.6 °F 86% 30.17 in 7.0 mi NNW 8.1 mph - N/A   Overcast
4:13 PM 21.2 °F 11.7 °F 17.6 °F 86% 30.18 in 7.0 mi North 8.1 mph - N/A   Overcast
4:34 PM 21.2 °F 11.7 °F 17.6 °F 86% 30.18 in 10.0 mi North 8.1 mph - N/A   Overcast
4:53 PM 21.2 °F 10.9 °F 17.6 °F 86% 30.19 in 10.0 mi North 9.2 mph - N/A   Overcast
5:13 PM 21.2 °F 9.5 °F 17.6 °F 86% 30.19 in 10.0 mi North 11.5 mph - N/A   Overcast
5:33 PM 19.4 °F 10.4 °F 17.6 °F 93% 30.20 in 10.0 mi NNW 6.9 mph - N/A   Overcast
5:53 PM 19.4 °F 10.4 °F 17.6 °F 93% 30.20 in 10.0 mi North 6.9 mph - N/A   Overcast
6:13 PM 21.2 °F 14.9 °F 17.6 °F 86% 30.21 in 10.0 mi North 4.6 mph - N/A   Overcast
6:33 PM 21.2 °F 16.4 °F 17.6 °F 86% 30.21 in 10.0 mi North 3.5 mph - N/A   Overcast
6:54 PM 21.2 °F 14.9 °F 17.6 °F 86% 30.21 in 10.0 mi North 4.6 mph - N/A   Overcast
7:13 PM 21.2 °F - 17.6 °F 86% 30.21 in 10.0 mi Calm Calm - N/A   Overcast
7:33 PM 21.2 °F 16.4 °F 17.6 °F 86% 30.21 in 10.0 mi North 3.5 mph - N/A   Overcast
7:53 PM 21.2 °F - 17.6 °F 86% 30.21 in 10.0 mi Calm Calm - N/A   Overcast
8:13 PM 21.2 °F 11.7 °F 17.6 °F 86% 30.21 in 10.0 mi North 8.1 mph - N/A   Overcast
8:33 PM 21.2 °F 13.6 °F 17.6 °F 86% 30.21 in 10.0 mi North 5.8 mph - N/A   Overcast
8:53 PM 21.2 °F 14.9 °F 17.6 °F 86% 30.21 in 10.0 mi North 4.6 mph - N/A   Overcast
9:13 PM 21.2 °F 16.4 °F 15.8 °F 80% 30.22 in 10.0 mi North 3.5 mph - N/A   Overcast
9:33 PM 19.4 °F 12.8 °F 15.8 °F 86% 30.22 in 10.0 mi North 4.6 mph - N/A   Overcast
9:53 PM 19.4 °F 14.3 °F 15.8 °F 86% 30.22 in 10.0 mi North 3.5 mph - N/A   Overcast
10:13 PM 19.4 °F - 15.8 °F 86% 30.22 in 10.0 mi Calm Calm - N/A   Overcast
10:33 PM 19.4 °F - 15.8 °F 86% 30.22 in 10.0 mi Calm Calm - N/A   Overcast
10:53 PM 19.4 °F - 15.8 °F 86% 30.22 in 10.0 mi Calm Calm - N/A   Overcast
11:13 PM 19.4 °F - 15.8 °F 86% 30.22 in 10.0 mi Calm Calm - N/A   Overcast
11:33 PM 19.4 °F - 15.8 °F 86% 30.21 in 10.0 mi Calm Calm - N/A   Overcast
11:53 PM 19.4 °F - 15.8 °F 86% 30.22 in 10.0 mi Calm Calm - N/A   Overcast